Regional Weather Roundup
Issued by NWS

Home | Current Version | Previous Version | Graphics & Text | Print | Product List | Glossary On
Versions: 1 2 3 4 5 6 7 8 9 10 11 12 13 14 15 16 17 18 19 20 21 22 23 24 25 26 27 28 29 30 31 32 33 34 35 36 37 38 39 40 41 42 43 44 45 46 47 48 49 50
691
ASUS43 KMPX 051210
RWRMN
WEATHER ROUNDUP FOR MINNESOTA
NATIONAL WEATHER SERVICE TWIN CITIES/CHANHASSEN MN
600 AM CST FRI FEB 05 2016


NOTE: "FAIR" INDICATES FEW OR NO CLOUDS BELOW 12,000 FEET WITH NO
SIGNIFICANT WEATHER AND/OR OBSTRUCTIONS TO VISIBILITY. N/A MEANS
CURRENT SKY AND/OR WEATHER CONDITIONS ARE NOT AVAILABLE.

MNZ060>063-068>070-051300-
   Twin Cities Metro

CITY           SKY/WX    TMP DP  RH WIND       PRES   REMARKS
TWIN CITIES    CLOUDY     9   5  84 S3        30.32F
6HR MIN TEMP:   7; 6HR MAX TEMP:  14;

ST PAUL        CLOUDY     8   5  87 CALM      30.34F FOG
CRYSTAL        CLOUDY     2  -3  80 CALM      30.30F
BLAINE         CLOUDY     1  -2  85 CALM      30.30F
LAKEVILLE      CLOUDY     1   1 100 CALM      30.31F
EDEN PRAIRIE   PTCLDY     5   1  83 CALM      30.31F
6HR MIN TEMP:   5; 6HR MAX TEMP:  13;

SOUTH ST PAUL  CLOUDY     7   3  84 CALM      30.32F
LAKE ELMO      FAIR       0  -4  85 CALM      30.33S
$$
MNZ001>005-007-008-013>017-022>024-027-028-051300-
   Northwest Minnesota

CITY           SKY/WX    TMP DP  RH WIND       PRES   REMARKS
BEMIDJI        CLOUDY    11   8  88 SE5       30.14F WCI   2
HALLOCK        CLOUDY    18  12  79 SE7       30.13S WCI   8
ROSEAU         CLOUDY    16  12  86 SE3       30.14S
WARROAD        CLOUDY    14  10  85 CALM      30.15S
THIEF RVR FALL PTCLDY    16  10  79 SE7       30.13S WCI   6
CROOKSTON      CLOUDY    18  14  86 S10       30.13S WCI   6
FOSSTON        CLOUDY    14  10  85 SE6       30.12S WCI   5
DETROIT LAKES  CLOUDY    16  14  93 S10       30.14F WCI   3
MOORHEAD       CLOUDY    16  12  86 S14       30.15S WCI   1
PARK RAPIDS    CLOUDY    11   7  84 SE10      30.15F WCI  -3
MAHNOMEN       PTSUNNY   16  12  85 S8        30.12S WCI   5
$$
MNZ006-009>011-018-025>026-051300-
   North Central Minnesota

CITY           SKY/WX    TMP DP  RH WIND       PRES   REMARKS
BAUDETTE       CLOUDY    13   8  81 SE6       30.15S WCI   4
FLAG ISLAND    LGT SNOW  10   7  85 SE3       30.16R
INTL FALLS     CLOUDY     6   3  87 CALM      30.19R
6HR MIN TEMP:   2; 6HR MAX TEMP:   7;

WASKISH        CLOUDY    12  10  92 SE3       30.16F
LONGVILLE      CLOUDY     1   0  92 CALM      30.20S
GRAND RAPIDS   CLOUDY     7   5  92 S6        30.20S WCI  -3
CRANE LAKE     CLOUDY    -6  -8  92 CALM      30.24R
ORR            CLOUDY     5   0  78 CALM      30.18R
COOK           CLOUDY     0  -4  85 SE1       30.21S
WALKER         FAIR      10   7  89 SE6       30.17F WCI   0
$$
MNZ012-019>021-037-051300-
   Northeast Minnesota

CITY           SKY/WX    TMP DP  RH WIND       PRES   REMARKS
DULUTH         CLOUDY     5   0  79 S3        30.24R
6HR MIN TEMP:  -4; 6HR MAX TEMP:   8;

ELY            PTCLDY    -6  -8  92 CALM      30.20F
HIBBING        CLOUDY    -4  -7  87 CALM      30.21S
EVELETH        CLOUDY    -2  -8  78 CALM      30.23S
DULUTH HARBOR  CLOUDY     5   1  85 CALM      30.31S
TWO HARBORS    PTCLDY     7   1  78 CALM      30.23R
SILVER BAY     CLOUDY    -6 -11  77 CALM      30.22F
GRAND MARAIS     N/A     11   4  73 SW5       30.29R WCI   3
G MARAIS ARPRT CLEAR      1  -4  78 CALM      30.17R
$$
MNZ029>031-032-039>041-046>048-054>057-064-051300-
   West Central Minnesota

CITY           SKY/WX    TMP DP  RH WIND       PRES   REMARKS
FERGUS FALLS   CLOUDY    16  12  86 S12       30.20S WCI   3
WHEATON        CLOUDY    18  16  93 SE13      30.18S WCI   4
MORRIS         CLOUDY    12  10  92 SE12      30.18S WCI  -2
ALEXANDRIA     CLOUDY    11   8  88 S12       30.19F WCI  -3
ELBOW LAKE     FAIR      13  11  92 E13       30.18R WCI  -2
WADENA         CLOUDY    12   9  85 S7        30.17S WCI   2
GLENWOOD       CLOUDY    10   9  92 SE7       30.21S WCI   0
APPLETON       CLOUDY    16  10  79 SE10      30.20S WCI   3
BENSON         CLOUDY    12  10  92 CALM      30.21S
ORTONVILLE     CLOUDY    12  10  92 SE10      30.17S WCI  -1
MADISON        CLOUDY    16  12  86 S12       30.20S WCI   3
WILLMAR        FAIR      14  12  92 SE6       30.25R WCI   5
$$
MNZ033>034-036-042>043-049>051-058-059-051300-
   Central Minnesota

CITY           SKY/WX    TMP DP  RH WIND       PRES   REMARKS
ST CLOUD       CLOUDY     1  -2  87 SE3       30.27S
6HR MIN TEMP:  -2; 6HR MAX TEMP:   6;

SAUK CENTRE    FAIR       4   2  89 SE3       30.23S
PAYNESVILLE    CLOUDY    10   8  92 SE7       30.25S WCI  -2
AITKIN         CLOUDY     3  -2  78 SE3       30.22S
PINE RIVER     CLOUDY     3   1  92 CALM      30.23S
BRAINERD       CLOUDY     5   1  83 S7        30.22F WCI  -7
STAPLES        CLOUDY     7   5  92 S6        30.20S WCI  -3
LONG PRAIRIE   FAIR       3   1  92 SE7       30.22S WCI  -9
LITTLE FALLS   CLOUDY     3   0  85 CALM      30.26R
LITCHFIELD     CLOUDY    10  10 100 CALM      30.27S
BUFFALO        PTCLDY     0  -4  85 CALM      30.31S FOG
MAPLE LAKE     CLOUDY     2  -1  87 CALM      30.29S
$$
MNZ037-044-045-052-053-051300-
   East Central Minnesota

CITY           SKY/WX    TMP DP  RH WIND       PRES   REMARKS
PRINCETON      CLOUDY     0  -2  92 CALM      30.28S
MORA           CLOUDY     0  -4  85 CALM      30.30S
CAMBRIDGE        N/A      1  -6  71 CALM      30.28S
RUSH CITY      CLOUDY    -1  -4  85 CALM      30.30S
MOOSE LAKE     MOCLDY    -4  -8  84 CALM      30.26R
HINCKLEY       FAIR       1  -2  85 CALM      30.28F
CLOQUET        CLOUDY    -2  -8  78 CALM      30.25R
MCGREGOR       CLOUDY     5   3  92 CALM      30.25R
$$
MNZ071>073-080-081-089-090-097-098-051300-
   Southwest Minnesota

CITY           SKY/WX    TMP DP  RH WIND       PRES   REMARKS
MONTEVIDEO     CLOUDY    12  10  92 S9        30.23F WCI   0
GRANITE FALLS  CLOUDY    13  10  87 SE12      30.25S WCI  -1
CANBY          CLOUDY    27  19  71 SW14G20   30.19S WCI  15
MARSHALL       CLOUDY    16  12  84 S10       30.22F WCI   4
REDWOOD FALLS  CLOUDY     5   1  83 SE12      30.27S WCI -11
OLIVIA         CLOUDY    12  10  92 SE8       30.26S WCI   1
PIPESTONE        N/A     14   7  73 S10       30.20S WCI   1
WINDOM         CLOUDY    10   9  92 CALM      30.25F
WORTHINGTON    CLOUDY    16   9  73 S9        30.25S WCI   4
JACKSON        CLOUDY    12   9  85 S7        30.27S WCI   2
TRACY          CLOUDY    19  15  82 S12       30.22F WCI   7
SLAYTON        CLOUDY    12  11  96 SE7       30.23S WCI   2
$$
MNZ065>067-074>077-082>085-091>093-051300-
   South Central Minnesota

CITY           SKY/WX    TMP DP  RH WIND       PRES   REMARKS
MANKATO        CLOUDY     3   0  85 SE8       30.30F WCI -10
NEW ULM        CLOUDY     7   3  85 SE5       30.30S WCI  -2
ST JAMES       CLOUDY     7   5  92 SE3       30.31S
FAIRMONT       CLOUDY     7   1  78 S6        30.29S WCI  -3
GLENCOE        CLOUDY     6   4  92 CALM      30.29S
FARIBAULT        N/A      1   0  92 CALM      30.32S
OWATONNA       CLOUDY     7   3  85 CALM      30.31F
WASECA         CLOUDY     5   1  85 CALM      30.33F
ALBERT LEA       N/A      3   1  92 CALM      30.32S
$$
MNZ078>079-086>088-094>096-051300-
   Southeast Minnesota

CITY           SKY/WX    TMP DP  RH WIND       PRES   REMARKS
ROCHESTER      PTCLDY     5   2  87 W7        30.31R WCI  -7
6HR MIN TEMP:   3; 6HR MAX TEMP:   9;

RED WING       PTCLDY     1  -4  78 CALM      30.34S
STANTON        PTCLDY    -1  -5  82 CALM      30.32F
DODGE CENTER   CLOUDY     1   0  92 W5        30.30S WCI  -8
WINONA         PTCLDY     9   5  85 NW3       30.37R
AUSTIN         PTCLDY     1   0  92 CALM      30.32S
PRESTON        PTCLDY     7   4  89 W7        30.32R WCI  -5
$$
ABBREVIATIONS USED IN REMARKS
   TC - TEMPERATURES IN CELSIUS
  WCI - WIND CHILL INDEX
   HX - HEAT INDEX
  VSB - VISIBILITY
$$




USA.gov is the U.S. government's official web portal to all federal, state and local government web resources and services.